• Em Portugal
  • Lista de países
  • Para 7 dias
  • Temperatura da água
  • Mapas de satélite
  • Mapa do tempo
  • Widgets de tempo
  • user-avatar
    Iniciar Sessão

    Previsão horária em Hondogi

    Hoje, 17 Julho, Terça-feira

    Tempo Temperatura Precipitação Vento Pressão Humidade
    00:00 +19°C° 0 mm 3 m/s 738 mmHg 95%
    01:00 +19°C° 0 mm 3 m/s 738 mmHg 95%
    02:00 +19°C° 0 mm 3 m/s 737 mmHg 96%
    03:00 +19°C° 0 mm 3 m/s 737 mmHg 96%
    04:00 +19°C° 0 mm 4 m/s 737 mmHg 96%
    05:00 +19°C° 0 mm 5 m/s 737 mmHg 96%
    06:00 +20°C° 0,1 mm 5 m/s 737 mmHg 93%
    07:00 +21°C° 0,1 mm 5 m/s 737 mmHg 90%
    08:00 +23°C° 0,1 mm 6 m/s 737 mmHg 88%
    09:00 +24°C° 0,7 mm 6 m/s 737 mmHg 84%
    10:00 +26°C° 0,7 mm 6 m/s 737 mmHg 80%
    11:00 +27°C° 0,7 mm 6 m/s 737 mmHg 77%
    12:00 +27°C° 0,7 mm 6 m/s 737 mmHg 76%
    13:00 +28°C° 0,7 mm 5 m/s 737 mmHg 75%
    14:00 +28°C° 0,7 mm 5 m/s 737 mmHg 75%
    15:00 +28°C° 0,5 mm 5 m/s 737 mmHg 78%
    16:00 +27°C° 0,5 mm 4 m/s 737 mmHg 80%
    17:00 +27°C° 0,5 mm 4 m/s 737 mmHg 83%
    18:00 +26°C° 0,2 mm 4 m/s 737 mmHg 85%
    19:00 +25°C° 0,2 mm 4 m/s 736 mmHg 87%
    20:00 +22°C° 0,2 mm 4 m/s 736 mmHg 89%
    21:00 +22°C° 0 mm 4 m/s 736 mmHg 90%
    22:00 +21°C° 0 mm 4 m/s 736 mmHg 91%
    23:00 +20°C° 0 mm 4 m/s 736 mmHg 92%

    Amanhã, 18 Julho, Quarta-feira

    Tempo Temperatura Precipitação Vento Pressão Humidade
    00:00 +20°C° 0 mm 4 m/s 736 mmHg 93%
    01:00 +20°C° 0 mm 4 m/s 736 mmHg 94%
    02:00 +19°C° 0 mm 4 m/s 736 mmHg 94%
    03:00 +19°C° 0 mm 4 m/s 736 mmHg 95%
    04:00 +19°C° 0 mm 4 m/s 736 mmHg 95%
    05:00 +19°C° 0 mm 4 m/s 736 mmHg 95%
    06:00 +20°C° 0 mm 4 m/s 736 mmHg 93%
    07:00 +20°C° 0 mm 4 m/s 736 mmHg 91%
    08:00 +21°C° 0 mm 5 m/s 736 mmHg 89%
    09:00 +21°C° 0 mm 5 m/s 736 mmHg 88%
    10:00 +22°C° 0 mm 4 m/s 736 mmHg 88%
    11:00 +22°C° 0 mm 4 m/s 736 mmHg 87%
    12:00 +22°C° 0,1 mm 4 m/s 736 mmHg 85%
    13:00 +23°C° 0,1 mm 4 m/s 736 mmHg 84%
    14:00 +23°C° 0,1 mm 4 m/s 736 mmHg 82%
    15:00 +23°C° 0,1 mm 4 m/s 736 mmHg 82%
    16:00 +25°C° 0,1 mm 4 m/s 736 mmHg 82%
    17:00 +25°C° 0,1 mm 3 m/s 736 mmHg 82%
    18:00 +24°C° 0,4 mm 3 m/s 736 mmHg 86%
    19:00 +22°C° 0,4 mm 3 m/s 736 mmHg 89%
    20:00 +21°C° 0,4 mm 3 m/s 736 mmHg 92%
    21:00 +20°C° 0,5 mm 3 m/s 736 mmHg 93%
    22:00 +19°C° 0,5 mm 3 m/s 736 mmHg 95%
    23:00 +19°C° 0,5 mm 3 m/s 735 mmHg 96%

    Depois de amanhã, 19 Julho, Quinta-feira

    Tempo Temperatura Precipitação Vento Pressão Humidade
    00:00 +19°C° 0 mm 3 m/s 735 mmHg 97%
    01:00 +18°C° 0 mm 3 m/s 735 mmHg 97%
    02:00 +18°C° 0 mm 3 m/s 735 mmHg 98%
    03:00 +18°C° 0,2 mm 3 m/s 735 mmHg 98%
    04:00 +18°C° 0,2 mm 3 m/s 736 mmHg 98%
    05:00 +18°C° 0,2 mm 3 m/s 736 mmHg 98%
    06:00 +19°C° 0,5 mm 3 m/s 736 mmHg 97%
    07:00 +19°C° 0,5 mm 3 m/s 736 mmHg 96%
    08:00 +20°C° 0,5 mm 3 m/s 736 mmHg 95%
    09:00 +21°C° 0,4 mm 3 m/s 736 mmHg 93%
    10:00 +21°C° 0,4 mm 3 m/s 736 mmHg 90%
    11:00 +22°C° 0,4 mm 4 m/s 736 mmHg 88%
    12:00 +23°C° 0,9 mm 4 m/s 736 mmHg 86%
    13:00 +23°C° 0,9 mm 4 m/s 736 mmHg 85%
    14:00 +25°C° 0,9 mm 5 m/s 736 mmHg 83%
    15:00 +25°C° 0,2 mm 5 m/s 736 mmHg 83%
    16:00 +23°C° 0,2 mm 5 m/s 736 mmHg 82%
    17:00 +23°C° 0,2 mm 5 m/s 736 mmHg 82%
    18:00 +22°C° 0 mm 4 m/s 736 mmHg 85%
    19:00 +21°C° 0 mm 4 m/s 736 mmHg 88%
    20:00 +20°C° 0 mm 3 m/s 736 mmHg 91%
    21:00 +19°C° 0 mm 3 m/s 736 mmHg 93%
    22:00 +19°C° 0 mm 3 m/s 736 mmHg 95%
    23:00 +18°C° 0 mm 3 m/s 736 mmHg 96%

    20 Julho, Sexta-feira

    Tempo Temperatura Precipitação Vento Pressão Humidade
    00:00 +18°C° 0,1 mm 3 m/s 736 mmHg 97%
    01:00 +18°C° 0,1 mm 3 m/s 736 mmHg 97%
    02:00 +18°C° 0,1 mm 3 m/s 736 mmHg 98%
    03:00 +18°C° 0,2 mm 3 m/s 736 mmHg 98%
    04:00 +18°C° 0,2 mm 3 m/s 736 mmHg 98%
    05:00 +18°C° 0,2 mm 3 m/s 736 mmHg 98%
    06:00 +19°C° 0,3 mm 3 m/s 736 mmHg 97%
    07:00 +19°C° 0,3 mm 3 m/s 736 mmHg 96%
    08:00 +20°C° 0,3 mm 3 m/s 736 mmHg 95%
    09:00 +21°C° 0,2 mm 3 m/s 736 mmHg 93%
    10:00 +22°C° 0,2 mm 3 m/s 736 mmHg 91%
    11:00 +22°C° 0,2 mm 3 m/s 736 mmHg 89%
    12:00 +24°C° 1,1 mm 3 m/s 736 mmHg 87%
    13:00 +25°C° 1,1 mm 3 m/s 736 mmHg 85%
    14:00 +26°C° 1,1 mm 3 m/s 736 mmHg 83%
    15:00 +26°C° 1,1 mm 3 m/s 736 mmHg 83%
    16:00 +26°C° 1,1 mm 3 m/s 735 mmHg 83%
    17:00 +26°C° 1,1 mm 3 m/s 735 mmHg 83%
    18:00 +25°C° 0,5 mm 3 m/s 736 mmHg 86%
    19:00 +22°C° 0,5 mm 3 m/s 736 mmHg 90%
    20:00 +21°C° 0,5 mm 3 m/s 736 mmHg 93%
    21:00 +21°C° 0 mm 3 m/s 736 mmHg 94%
    22:00 +20°C° 0 mm 2 m/s 736 mmHg 95%
    23:00 +19°C° 0 mm 2 m/s 736 mmHg 97%

    21 Julho, Sábado

    Tempo Temperatura Precipitação Vento Pressão Humidade
    00:00 +19°C° 0 mm 2 m/s 736 mmHg 97%
    01:00 +19°C° 0 mm 2 m/s 736 mmHg 97%
    02:00 +18°C° 0 mm 2 m/s 736 mmHg 98%
    03:00 +19°C° 0 mm 2 m/s 736 mmHg 98%
    04:00 +19°C° 0 mm 2 m/s 736 mmHg 98%
    05:00 +19°C° 0 mm 2 m/s 736 mmHg 98%
    06:00 +21°C° 0 mm 1 m/s 736 mmHg 95%
    07:00 +22°C° 0 mm 1 m/s 736 mmHg 93%
    08:00 +23°C° 0 mm 1 m/s 736 mmHg 91%
    09:00 +23°C° 0,1 mm 1 m/s 737 mmHg 89%
    10:00 +24°C° 0,1 mm 1 m/s 737 mmHg 86%
    11:00 +25°C° 0,1 mm 1 m/s 737 mmHg 84%
    12:00 +26°C° 0,1 mm 1 m/s 737 mmHg 80%
    13:00 +27°C° 0,1 mm 1 m/s 737 mmHg 77%
    14:00 +27°C° 0,1 mm 1 m/s 737 mmHg 74%
    15:00 +27°C° 0,1 mm 1 m/s 737 mmHg 74%
    16:00 +27°C° 0,1 mm 1 m/s 737 mmHg 75%
    17:00 +27°C° 0,1 mm 2 m/s 736 mmHg 76%
    18:00 +26°C° 0,2 mm 1 m/s 736 mmHg 81%
    19:00 +25°C° 0,2 mm 1 m/s 736 mmHg 85%
    20:00 +24°C° 0,2 mm 1 m/s 736 mmHg 90%
    21:00 +23°C° 0,2 mm 1 m/s 736 mmHg 91%
    22:00 +22°C° 0,2 mm 1 m/s 736 mmHg 92%
    23:00 +22°C° 0,2 mm 1 m/s 736 mmHg 92%

    22 Julho, Domingo

    Tempo Temperatura Precipitação Vento Pressão Humidade
    00:00 +22°C° 0 mm 1 m/s 736 mmHg 93%
    01:00 +21°C° 0 mm 1 m/s 736 mmHg 94%
    02:00 +21°C° 0 mm 1 m/s 736 mmHg 94%
    03:00 +21°C° 0,1 mm 1 m/s 736 mmHg 95%
    04:00 +21°C° 0,1 mm 1 m/s 736 mmHg 95%
    05:00 +21°C° 0,1 mm 1 m/s 736 mmHg 95%
    06:00 +22°C° 0,8 mm 1 m/s 736 mmHg 94%
    07:00 +23°C° 0,8 mm 1 m/s 736 mmHg 92%
    08:00 +24°C° 0,8 mm 2 m/s 736 mmHg 90%
    09:00 +25°C° 0,7 mm 2 m/s 736 mmHg 85%
    10:00 +26°C° 0,7 mm 1 m/s 736 mmHg 80%
    11:00 +28°C° 0,7 mm 1 m/s 736 mmHg 75%
    12:00 +28°C° 2,2 mm 2 m/s 736 mmHg 75%
    13:00 +28°C° 2,2 mm 2 m/s 736 mmHg 75%
    14:00 +28°C° 2,2 mm 2 m/s 736 mmHg 76%
    15:00 +28°C° 0,2 mm 2 m/s 736 mmHg 76%
    16:00 +28°C° 0,2 mm 2 m/s 736 mmHg 76%
    17:00 +28°C° 0,2 mm 2 m/s 735 mmHg 76%
    18:00 +27°C° 0,8 mm 2 m/s 736 mmHg 79%
    19:00 +25°C° 0,8 mm 2 m/s 736 mmHg 83%
    20:00 +24°C° 0,8 mm 2 m/s 736 mmHg 86%
    21:00 +23°C° 0,2 mm 2 m/s 736 mmHg 88%
    22:00 +21°C° 0,2 mm 2 m/s 736 mmHg 90%
    23:00 +21°C° 0,2 mm 2 m/s 735 mmHg 92%
    Mostrar mais